[[{"header":{"parameterUnit":"m.s-1","parameterCategory":1,"la1":30.2991,"la2":30.254,"lo1":-89.0895,"lo2":-89.0444,"dy":0.0017,"dx":0.0017,"nx":28,"ny":28,"refTime":"2025-02-26T09:00:00:Z","depth":0,"parameterNumber":2,"parameterNumberName":"U-component_of_WINDS"},"data":[0,0,0,0,0,0,0,0,0,0,0,0,0,0,0,0,0,0,0,0,0,0,0,0,0,0,0,0,0,0,0,0,0,0,0,0,0,0,0,0,0,0,0,0,0,0,0,0,0,0,0,0,0,0,0,0,0,0,1.5899,1.5899,0,1.5931,1.5931,1.5932,1.5899,1.5898,1.5897,1.5896,1.5931,1.5933,1.5935,0,0,0,0,0,0,0,0,0,0,0,0,0,1.5814,1.5816,1.5899,1.5899,1.59,1.5931,1.5931,1.5932,1.59,1.5898,1.5896,1.5895,1.593,1.5933,1.5935,0,0,0,0,0,0,0,0,0,0,0,0,0,1.5849,1.5817,1.5899,1.5887,1.5887,1.5931,1.5931,1.5932,1.59,1.5898,1.5896,1.5894,1.5929,1.5933,1.5936,1.5994,0,0,1.5945,1.5947,0,0,0,0,0,0,0,0,1.5847,1.5852,1.5889,1.5888,1.5888,1.5909,1.5914,1.5953,1.59,1.5895,1.5896,1.5893,1.5925,1.5929,1.5939,1.5995,1.5997,1.5946,1.5948,1.5949,1.595,0,0,0,0,0,0,0,1.5845,1.5851,1.5912,1.5889,1.5889,1.5882,1.5885,1.5922,1.5921,1.5895,1.5893,1.5897,1.5925,1.5936,1.594,1.5997,1.5946,1.5948,1.595,1.5952,1.6107,1.6109,0,0,0,0,0,0,1.5843,1.5849,1.5911,1.5913,1.5862,1.5885,1.5888,1.5904,1.592,1.5921,1.5899,1.5895,1.5932,1.5936,1.5941,1.6013,1.5949,1.5952,1.5954,1.6105,1.6107,1.611,0,0,0,0,0,0,1.5842,1.5849,1.5909,1.588,1.5887,1.5889,1.5907,1.5906,1.5917,1.5923,1.5923,1.591,1.593,1.5936,1.5981,1.6014,1.5953,1.5956,1.6102,1.6105,1.6109,1.6156,0,0,0,0,0,0,1.5839,1.5849,1.587,1.5881,1.5889,1.5948,1.5909,1.5908,1.5922,1.5919,1.5933,1.5934,1.5929,1.5977,1.5985,1.6017,1.5959,1.6099,1.6104,1.6107,1.6151,1.616,1.6168,0,0,0,0,0,1.5836,1.5881,1.5871,1.5878,1.5915,1.595,1.5955,1.5948,1.5925,1.5947,1.5951,1.5934,1.6008,1.5982,1.599,1.6024,1.6097,1.6102,1.6107,1.6148,1.6158,1.6168,0,0,0,0,0,0,1.5874,1.5882,1.5871,1.592,1.5935,1.5945,1.5972,1.5959,1.5981,1.5976,1.5967,1.5971,1.6019,1.6025,1.5996,1.6083,1.6049,1.6056,1.6077,1.6087,1.6096,1.6094,1.5961,0,0,0,0,0,1.5888,1.5914,1.5921,1.5964,1.5972,1.5971,1.5986,1.5979,1.5994,1.6,1.6007,1.6023,1.6051,1.6069,1.6094,1.6151,1.6156,1.6179,1.6187,1.6194,1.6201,1.6236,1.6247,1.6126,1.6126,1.6126,0,0,1.5917,1.5925,1.5943,1.5972,1.5982,1.6012,1.5976,1.6008,1.6031,1.6005,1.6049,1.6055,1.6072,1.6125,1.6148,1.6132,1.6235,1.62,1.6205,1.6209,1.6242,1.6253,1.6263,1.6129,1.6129,1.6128,0,0,1.5987,1.5994,1.6032,1.6044,1.606,1.6059,1.6069,1.6081,1.6084,1.6128,1.611,1.6137,1.6183,1.6198,1.6211,1.6289,1.6275,1.6297,1.6341,1.6375,1.6384,1.6393,1.6424,1.6435,1.6303,1.6303,1.6303,0,1.6021,1.6064,1.6054,1.6089,1.6104,1.6081,1.6122,1.6133,1.6157,1.6169,1.615,1.621,1.6219,1.6277,1.6296,1.6306,1.6319,1.6296,1.6384,1.6392,1.64,1.643,1.6441,1.6306,1.6306,1.6305,1.6305,0,1.6109,1.6139,1.6168,1.6193,1.621,1.6248,1.6245,1.6264,1.6256,1.6259,1.6305,1.6316,1.6345,1.6358,1.635,1.6415,1.6405,1.6384,1.6351,1.6414,1.6442,1.6453,1.631,1.6309,1.6308,1.6308,0,0,1.6203,1.6222,1.6233,1.6246,1.6262,1.6287,1.6324,1.6352,1.6371,1.6388,1.6421,1.6462,1.6444,1.646,1.6453,1.6482,1.6548,1.6459,1.646,1.6478,1.6625,1.6643,1.6656,1.6538,1.654,1.6541,1.6625,0,1.6276,1.634,1.6333,1.6395,1.6425,1.6405,1.6438,1.6453,1.6457,1.6484,1.6487,1.6518,1.649,1.65,1.6528,1.6534,1.6578,1.6527,1.6572,1.6573,1.6571,1.667,1.6688,1.6766,1.6635,1.6637,1.6638,0,1.6369,1.6391,1.6457,1.6472,1.6484,1.6514,1.6541,1.6565,1.6583,1.6584,1.6602,1.6591,1.6632,1.6596,1.6653,1.6619,1.6636,1.6642,1.6645,1.6652,1.6612,1.6682,1.679,1.6803,1.6655,1.6653,1.6652,0,1.6437,1.6482,1.6528,1.6538,1.6556,1.6578,1.6587,1.6602,1.6621,1.6644,1.6657,1.6684,1.67,1.6723,1.6721,1.6694,1.6781,1.6743,1.6785,1.6786,1.6806,1.6806,1.6922,1.6812,1.6812,1.6812,1.6811,0,1.6521,1.6563,1.6559,1.6587,1.6635,1.6626,1.6674,1.668,1.6694,1.6726,1.6709,1.6739,1.6733,1.6763,1.6762,1.6812,1.6818,1.6822,1.6822,1.6826,1.6826,1.6839,1.6835,1.6815,1.6814,1.6814,1.6813,0,1.6605,1.6603,1.6653,1.6666,1.667,1.6705,1.6717,1.6746,1.6747,1.6787,1.6796,1.68,1.6835,1.6835,1.6875,1.6874,1.6937,1.6928,1.6931,1.6931,1.6974,1.6971,1.7106,1.7125,1.6999,1.7,1.7001,0,1.666,1.6692,1.6709,1.6729,1.6739,1.677,1.6789,1.6782,1.6803,1.6827,1.6853,1.6887,1.6914,1.6971,1.6979,1.7011,1.7005,1.705,1.701,1.7014,1.7011,1.701,1.7015,1.7059,1.7061,1.7062,1.7063,0,1.676,1.6758,1.6785,1.6813,1.6836,1.6858,1.6878,1.6895,1.6891,1.6916,1.6952,1.6972,1.7014,1.7049,1.708,1.709,1.7078,1.7075,1.7087,1.7093,1.7095,1.7098,1.6956,1.7073,1.7072,1.7071,1.707,1.707,1.6834,1.6863,1.688,1.6912,1.6926,1.6946,1.6974,1.698,1.7009,1.7043,1.7037,1.7078,1.7098,1.7138,1.7151,1.7185,1.7169,1.7186,1.719,1.7196,1.7202,1.7086,1.719,1.719,1.7189,1.7189,1.7189,0,1.6936,1.6946,1.6976,1.7005,1.7031,1.7014,1.7036,1.706,1.7096,1.7114,1.7141,1.7185,1.7219,1.7229,1.7263,1.7288,1.7284,1.7298,1.7298,1.7301,1.7212,1.72,1.7301,1.7301,1.7301,1.7301,1.7301,1.7301,1.6993,1.7042,1.7042,1.71,1.711,1.7149,1.7164,1.7183,1.7199,1.7247,1.7276,1.7282,1.7298,1.7333,1.7365,1.7368,1.7383,1.74,1.7401,1.7318,1.7307,1.7296,1.7285,1.7403,1.7403,1.7487,1.7488,1.7489]},{"header":{"parameterUnit":"m.s-1","parameterCategory":1,"la1":30.2991,"la2":30.254,"lo1":-89.0895,"lo2":-89.0444,"dy":0.0017,"dx":0.0017,"nx":28,"ny":28,"refTime":"2025-02-26T09:00:00:Z","depth":0,"parameterNumber":3,"parameterNumberName":"V-component_of_WINDS"},"data":[0,0,0,0,0,0,0,0,0,0,0,0,0,0,0,0,0,0,0,0,0,0,0,0,0,0,0,0,0,0,0,0,0,0,0,0,0,0,0,0,0,0,0,0,0,0,0,0,0,0,0,0,0,0,0,0,0,0,-3.1791,-3.1789,0,-3.1548,-3.1545,-3.1543,-3.1481,-3.1483,-3.1485,-3.1486,-3.1226,-3.1217,-3.1209,0,0,0,0,0,0,0,0,0,0,0,0,0,-3.2189,-3.2182,-3.1792,-3.1788,-3.1785,-3.1549,-3.1545,-3.1542,-3.1481,-3.1483,-3.1485,-3.1487,-3.1228,-3.1218,-3.1208,0,0,0,0,0,0,0,0,0,0,0,0,0,-3.1988,-3.218,-3.1792,-3.1727,-3.1719,-3.1549,-3.1545,-3.1541,-3.1481,-3.1483,-3.1486,-3.1488,-3.1232,-3.1219,-3.1207,-3.1082,0,0,-3.1168,-3.1163,0,0,0,0,0,0,0,0,-3.2,-3.1974,-3.1739,-3.1731,-3.1722,-3.1548,-3.159,-3.1387,-3.148,-3.1571,-3.1486,-3.1489,-3.133,-3.131,-3.1258,-3.107,-3.1058,-3.1167,-3.116,-3.1154,-3.1151,0,0,0,0,0,0,0,-3.2014,-3.1984,-3.1695,-3.1736,-3.1725,-3.1705,-3.1679,-3.1551,-3.144,-3.1563,-3.1558,-3.1531,-3.1326,-3.1271,-3.1252,-3.1055,-3.1168,-3.1156,-3.1149,-3.1144,-3.0745,-3.0742,0,0,0,0,0,0,-3.2041,-3.1996,-3.1703,-3.1688,-3.187,-3.1696,-3.1667,-3.1601,-3.1441,-3.1419,-3.1529,-3.1529,-3.1291,-3.1267,-3.1242,-3.1081,-3.1154,-3.1142,-3.1135,-3.0748,-3.0744,-3.0741,0,0,0,0,0,0,-3.2049,-3.2015,-3.1712,-3.184,-3.18,-3.1687,-3.1613,-3.1595,-3.154,-3.1416,-3.1394,-3.1494,-3.1292,-3.126,-3.1122,-3.1072,-3.1137,-3.1125,-3.0751,-3.0747,-3.0742,-3.0761,0,0,0,0,0,0,-3.2061,-3.2019,-3.1973,-3.184,-3.1794,-3.16,-3.161,-3.1588,-3.152,-3.1517,-3.1377,-3.1356,-3.1291,-3.1141,-3.1109,-3.1055,-3.1116,-3.0755,-3.0749,-3.0744,-3.0764,-3.0758,-3.0752,0,0,0,0,0,-3.2076,-3.1987,-3.1972,-3.1936,-3.1735,-3.1597,-3.157,-3.1501,-3.1517,-3.1467,-3.1386,-3.1361,-3.1083,-3.1127,-3.1091,-3.1033,-3.0758,-3.0751,-3.0744,-3.0767,-3.0759,-3.0752,0,0,0,0,0,0,-3.2114,-3.1968,-3.195,-3.1816,-3.172,-3.1588,-3.1524,-3.1496,-3.139,-3.1392,-3.1307,-3.1275,-3.1141,-3.1073,-3.1125,-3.09,-3.092,-3.0906,-3.095,-3.0941,-3.0935,-3.0952,-3.1105,0,0,0,0,0,-3.2108,-3.2013,-3.1888,-3.1782,-3.1735,-3.1638,-3.1575,-3.153,-3.1426,-3.1383,-3.1293,-3.1189,-3.1077,-3.1006,-3.0897,-3.0755,-3.072,-3.0697,-3.0691,-3.0686,-3.0673,-3.0588,-3.0575,-3.0718,-3.0718,-3.0718,0,0,-3.2093,-3.2001,-3.1945,-3.1787,-3.1708,-3.1605,-3.1604,-3.1497,-3.1419,-3.1366,-3.123,-3.1159,-3.1037,-3.0895,-3.0828,-3.0834,-3.0626,-3.0677,-3.0675,-3.0664,-3.058,-3.0566,-3.0554,-3.0714,-3.0715,-3.0715,0,0,-3.2012,-3.1935,-3.1836,-3.1757,-3.1637,-3.1572,-3.1549,-3.142,-3.1372,-3.1235,-3.1192,-3.1095,-3.0907,-3.082,-3.0752,-3.0635,-3.0605,-3.0602,-3.0569,-3.0487,-3.0475,-3.0465,-3.0418,-3.0404,-3.0591,-3.0591,-3.0591,0,-3.2006,-3.1855,-3.1788,-3.1682,-3.1612,-3.1563,-3.1458,-3.1383,-3.1232,-3.1183,-3.1193,-3.0953,-3.0868,-3.0703,-3.0674,-3.0622,-3.0588,-3.0616,-3.0483,-3.0472,-3.0461,-3.0416,-3.0399,-3.0591,-3.0591,-3.0591,-3.0591,0,-3.1852,-3.1748,-3.1681,-3.154,-3.1462,-3.1358,-3.127,-3.1198,-3.116,-3.1093,-3.095,-3.0846,-3.0713,-3.0671,-3.0632,-3.0499,-3.0506,-3.0501,-3.0518,-3.0448,-3.0404,-3.0387,-3.0591,-3.0591,-3.0591,-3.0591,0,0,-3.1789,-3.1611,-3.1587,-3.1521,-3.1384,-3.1299,-3.119,-3.1064,-3.1001,-3.0899,-3.0801,-3.0642,-3.0636,-3.0558,-3.0508,-3.0436,-3.0345,-3.0439,-3.0434,-3.0421,-3.0186,-3.0189,-3.017,-3.0326,-3.0322,-3.032,-3.0195,0,-3.1688,-3.1496,-3.1431,-3.127,-3.1169,-3.1119,-3.1023,-3.0926,-3.086,-3.0761,-3.0687,-3.0574,-3.0576,-3.0528,-3.0456,-3.0372,-3.0296,-3.038,-3.0229,-3.0225,-3.0258,-3.0148,-3.015,-3.0038,-3.0178,-3.0175,-3.0173,0,-3.1545,-3.1442,-3.1272,-3.1144,-3.1099,-3.1015,-3.0891,-3.08,-3.0686,-3.0643,-3.0555,-3.051,-3.0388,-3.0416,-3.0244,-3.0303,-3.0237,-3.0186,-3.018,-3.016,-3.0192,-3.0121,-3.0001,-2.9983,-3.0146,-3.0148,-3.015,0,-3.151,-3.1329,-3.1203,-3.1148,-3.0997,-3.0938,-3.0871,-3.0761,-3.0688,-3.0579,-3.0529,-3.0406,-3.0338,-3.0242,-3.0162,-3.019,-2.9996,-3.0018,-2.9952,-2.9953,-2.991,-2.9914,-2.9774,-2.9875,-2.9875,-2.9876,-2.9876,0,-3.1402,-3.1299,-3.1185,-3.1107,-3.0987,-3.0911,-3.0794,-3.0724,-3.0626,-3.0529,-3.0478,-3.0388,-3.0291,-3.0186,-3.0123,-2.9988,-2.9958,-2.9915,-2.9899,-2.9918,-2.9923,-2.9871,-2.9875,-2.9871,-2.9872,-2.9873,-2.9874,0,-3.1343,-3.1263,-3.1121,-3.099,-3.0955,-3.0872,-3.0757,-3.0676,-3.0609,-3.0486,-3.0453,-3.0344,-3.0218,-3.0131,-2.9968,-2.9925,-2.9778,-2.9764,-2.9817,-2.9808,-2.9746,-2.9751,-2.9565,-2.9535,-2.966,-2.9659,-2.9658,0,-3.1278,-3.1197,-3.1058,-3.0991,-3.0925,-3.0819,-3.0744,-3.0664,-3.0588,-3.0451,-3.0385,-3.0257,-3.015,-2.9949,-2.9853,-2.9727,-2.9707,-2.9651,-2.9688,-2.9708,-2.9701,-2.9705,-2.9694,-2.9644,-2.9643,-2.9642,-2.9642,0,-3.1169,-3.1133,-3.1029,-3.091,-3.0823,-3.0725,-3.0626,-3.0573,-3.0475,-3.0391,-3.0263,-3.018,-3.0014,-2.9885,-2.9749,-2.9675,-2.9639,-2.9631,-2.9608,-2.9625,-2.9657,-2.9634,-2.9797,-2.9635,-2.9636,-2.9636,-2.9637,-2.9637,-3.1101,-3.1025,-3.0915,-3.0799,-3.0717,-3.0625,-3.0542,-3.0464,-3.0357,-3.0218,-3.0177,-3.0042,-2.9926,-2.9741,-2.9666,-2.9556,-2.9559,-2.9528,-2.9519,-2.9511,-2.9509,-2.9678,-2.9531,-2.9531,-2.9531,-2.9531,-2.9531,0,-3.0986,-3.0912,-3.0807,-3.0671,-3.0579,-3.0558,-3.0446,-3.0369,-3.0253,-3.015,-3.0045,-2.9895,-2.9769,-2.9663,-2.9531,-2.9463,-2.9443,-2.9431,-2.9433,-2.9415,-2.9516,-2.9547,-2.9449,-2.9449,-2.9449,-2.9449,-2.9449,-2.9449,-3.0915,-3.0785,-3.0735,-3.0561,-3.0487,-3.0357,-3.0295,-3.0207,-3.0124,-2.9961,-2.9857,-2.9789,-2.9683,-2.9542,-2.9424,-2.9395,-2.9347,-2.9337,-2.9304,-2.94,-2.9409,-2.9418,-2.9446,-2.9329,-2.9329,-2.9212,-2.9211,-2.921]}]]